Location: Brookfield Center
(41.2406°N, 80.5579°W)
Time: 18:44:29
(UTC+00:00)

Cosmos 2297 Rocket - Pass Details

Date: 18 January 2020
Orbit: 838 x 845 km, 71.0° (Epoch: 15 February)

Event Time Altitude Azimuth Distance (km) Brightness Sun altitude
Rises 00:26:28 0° 199° (SSW) 3,376 5.7 -23.4°
Reaches altitude 10° 00:28:53 10° 198° (SSW) 2,447 4.9 -23.9°
Maximum altitude 00:34:30 82° 112° (ESE) 853 2.0 -24.9°
Enters shadow 00:35:43 57° 34° (NE) 987 2.3 -25.1°
